Regional Weather Roundup
Issued by NWS Upton, NY

Current Version | Previous Version | Graphics & Text | Print | Product List | Glossary Off
Versions: 1 2 3 4 5 6 7 8 9 10 11 12 13 14 15 16 17 18 19 20 21 22 23 24 25 26 27

000
ASUS41 KOKX 230308
RWROKX

REGIONAL WEATHER ROUNDUP
NATIONAL WEATHER SERVICE NEW YORK NY
1000 PM EST WED FEB 22 2017

NOTE: "FAIR" INDICATES FEW OR NO CLOUDS BELOW 12,000 FEET WITH NO
SIGNIFICANT WEATHER AND/OR OBSTRUCTIONS TO VISIBILITY.

NYZ071-072-176-178-NJZ106-104-230400-
NEW YORK CITY METRO AREA

CITY           SKY/WX    TMP DP  RH WIND       PRES   REMARKS
Central Park   CLOUDY    50  41  71 CALM      29.93S
Wall St Helipt NOT AVBL
LaGuardia APRT CLOUDY    51  43  74 CALM      29.90F
Kennedy INTL   MOCLDY    42  42 100 S3        29.92F
Breezy Point     N/A     43 N/A N/A CALM        N/A
Newark/Liberty CLOUDY    50  42  74 S3        29.91S
Teterboro      CLOUDY    50  41  71 CALM      29.90F
$$

NYZ177-179-078>081-230400-
LONG ISLAND NEW YORK

CITY           SKY/WX    TMP DP  RH WIND       PRES   REMARKS
Jones Beach      N/A     43 N/A N/A SW1         N/A
Matinecock PT  NOT AVBL
Farmingdale    CLOUDY    45  42  89 SW3       29.91F
MacArthur/ISP  CLOUDY    43  43 100 CALM      29.91S FOG
Shirley        FOG       43  43 100 S5        29.92F VSB 1/4
Westhampton    FOG       44  43  96 CALM      29.93S VSB 1/4
Southampton    NOT AVBL
Bridgehampton  NOT AVBL
East Hampton   FOG       44  44  99 CALM      29.91F VSB 1/2
Montauk          N/A     45  45 100 CALM      29.93F
$$

NYZ052-065-067-230400-
HUDSON VALLEY

CITY           SKY/WX    TMP DP  RH WIND       PRES   REMARKS
White Plains   PTCLDY    41  36  82 NW3       29.89F
Newburgh       PTCLDY    41  39  93 CALM      29.90F
Montgomery     CLEAR     37  34  89 CALM      29.88S
Poughkeepsie   CLEAR     39  35  86 CALM      29.89S
Albany         PTCLDY    48  35  60 S5        29.87S
$$

NJZ001-105-106-008-010-013-015-019>022-104-230400-
NEW JERSEY

CITY           SKY/WX    TMP DP  RH WIND       PRES   REMARKS
Newark/Liberty CLOUDY    50  42  74 S3        29.91S
Teterboro      CLOUDY    50  41  71 CALM      29.90F
Caldwell       CLOUDY    46  39  76 CALM      29.91S
Somerville     PTCLDY    43  38  82 CALM      29.89F
Linden         NOT AVBL
Sussex         CLEAR     37  36  96 CALM      29.90S
Andover          N/A     37  35  92 CALM      29.89F
Trenton        PTCLDY    46  40  79 CALM      29.91S
Millville      CLOUDY   N/A N/A N/A CALM      29.92F
Atlantic City  CLOUDY    48  45  89 CALM      29.93S
Wrightstown    PTCLDY    47  43  86 CALM      29.89F
Toms River     CLOUDY    42  41  96 CALM      29.93F
Belmar         CLOUDY    48  46  93 S6        29.92F
$$

PAZ047>061-062-071-230400-
EASTERN PENNSYLVANIA

CITY           SKY/WX    TMP DP  RH WIND       PRES   REMARKS
Philadelphia   CLOUDY    46  42  86 CALM      29.92F
Allentown      CLOUDY    42  36  79 CALM      29.90S
Scranton       CLEAR     47  40  76 SE3       29.87F
$$

CTZ002-004>006-009-010-012-RIZ004-006-007-MAZ004-011-015-230400-
SOUTHERN NEW ENGLAND
 IN CT

CITY           SKY/WX    TMP DP  RH WIND       PRES   REMARKS
Bradley INTL   PTCLDY    42  36  79 S6        29.89R
Hartford       MOCLDY    43  36  76 S3        29.90S
Danbury        CLEAR     35  33  92 CALM      29.91S
Wtrbury/Oxford CLEAR     43  34  70 CALM      29.92R
Bridgeport     CLEAR     41  36  82 CALM      29.91F
Meriden        CLEAR     39  35  86 CALM      29.91R
New Haven      CLEAR     37  34  89 CALM      29.91S
Chester          N/A     43  37  81 CALM      29.90S
Groton         PTCLDY    39  36  89 NE3       29.91F
Wilimantic     CLEAR     40  35  83 CALM      29.91S

 IN RI

CITY           SKY/WX    TMP DP  RH WIND       PRES   REMARKS
Providence     MOCLDY    40  35  83 CALM      29.90F
Block Island   FOG       43  43 100 SW12      29.92F VSB 1/4
Westerly       PTCLDY    40  34  79 CALM      29.92F
 IN MA

CITY           SKY/WX    TMP DP  RH WIND       PRES   REMARKS
Boston         CLEAR     41  38  89 S6        29.89F
Worcester      CLEAR     45  34  65 W10       29.87F
Westfield      PTCLDY    35  33  92 SW5       29.88S WCI  31
Provincetown   CLEAR     40  37  89 S8        29.91F WCI  34
Nantucket      CLOUDY    41  39  93 SW7       29.94S
$$

ANZ330-335-338-340-345-350-353-355-230400-
COASTAL MARINE OBSERVATIONS


STATION/POSITION TIME  SKY/WX   TEMP    WIND        PRES    VSBY  WAVE
                                AIR SEA DIR/SP/G                  HT/PER
                 (UTC)          (F)     (DEG/KT/KT) (MB)    (MI)  (FT/S)
NY HARB ENTRANCE 0250            44 42  200/  6/  8 1012.8          2/10
20 S FIRE ISLAND 0250            44 43  230/  8/  8 1013.2          3/10
GREAT SOUTH BAY  NOT AVBL
23 SSW MONTAUK P 0250            45 44              1013.8          3/10
15 E BARNEGAT LI 0230               42                N/A           3/ 8
HUDSON CANYON    0250               49              1013.4          3/ 9
KINGS POINT      0242            47 39              1012.5
EXECUTION ROCKS  NOT AVBL
CENTRAL LI SOUND 0230            41     170/  2/  4   N/A           0
EASTERN LI SOUND NOT AVBL
ROBBINS REEF     0242            48     180/  6/  6 1013.0
$$


>>>>>>>>>>>>>>>>>>>>>>>>>>>> KEY <<<<<<<<<<<<<<<<<<<<<<<<<<<
>                                                          <
>     SKY/WX - Sky Condition/Present Weather               <
>     TMP    - Temperature in Fahrenheit                   <
>     DP     - Dew Point in Fahrenheit                     <
>     RH     - Relative Humidity in Percent                <
>     WIND   - Direction (from) and Speed in MPH           <
>     PRES   - Mean Sea Level Pressure (inches of Hg)      <
>     WCI    - Wind Chill Index                            <
>     VSB    - VISIBILITY IN MILES                         <
>     HX     - HEAT INDEX                                  <
>     TC     - TEMPERATURE IN CELSIUS                      <
>     VRB    - VARIABLE WIND DIRECTION                     <
>                                                          <
>>>>>>>>>>>>>>>>>>>>>>>>>>>> KEY <<<<<<<<<<<<<<<<<<<<<<<<<<<




USA.gov is the U.S. government's official web portal to all federal, state and local government web resources and services.